Temp
11 11 11 11 10 11 12 12 12 11 10 10 11 11 12 13 13 12 12 13 14 14 13 12 10 8 5 6 9 9 10 10 11 11 11 9 10 11 13 14 14 13 14 15 14 14 14
11 10 10 10 11 11 11 11 11 11 10 10 11 11 11 12 12 10 11 13 14 13 13 12 11 7 5 10 8 8 9 10 9 9 8 9 10 11 12 13 12 14 14 14 14 14 13
10 10 10 10 10 11 11 10 10 10 11 11 11 11 11 11 12 11 12 12 12 11 11 10 9 5 5 8 7 8 9 10 9 9 8 8 9 10 10 12 12 12 11 13 13 13 13
10 10 10 10 10 10 10 9 10 10 10 10 10 10 11 11 11 11 12 12 9 9 9 9 7 6 7 7 8 8 9 9 9 9 8 8 8 8 9 11 11 11 12 12 15 14 14
9 9 9 10 9 9 9 9 10 10 10 10 10 10 10 10 10 11 12 13 9 8 7 5 6 5 8 7 7 8 8 8 8 8 8 7 8 8 8 9 9 12 11 13 14 13 13
9 9 9 9 9 9 9 9 9 9 9 10 10 10 10 10 10 10 11 12 9 7 7 6 7 7 7 5 6 7 8 8 8 8 8 8 7 8 8 8 9 12 12 12 12 14 13
9 9 9 8 8 9 8 8 9 9 9 10 10 9 9 9 9 9 10 10 9 7 6 2 4 5 5 5 6 5 7 8 8 8 10 10 9 8 9 9 9 9 9 10 12 12 11
9 9 8 8 8 8 8 8 9 9 9 9 9 9 9 9 9 8 9 5 2 3 3 4 4 5 5 4 5 5 5 7 8 8 9 9 8 10 9 8 6 6 6 7 9 11 11
9 8 8 8 8 8 8 8 9 9 9 9 9 9 8 8 8 7 6 3 2 1 3 4 4 4 4 3 5 4 4 5 7 7 8 7 9 7 6 4 4 5 5 6 6 8 9
8 8 7 8 8 8 8 8 8 9 9 9 9 9 8 7 7 6 5 4 2 0 7 5 5 4 4 4 6 4 3 4 6 5 5 6 6 5 5 5 2 3 6 4 4 4 7
8 7 7 8 7 8 8 8 8 8 8 8 8 8 8 7 7 5 4 4 2 1 10 5 4 3 3 4 3 4 3 3 4 4 4 5 5 5 5 4 5 4 5 4 4 5 6
7 7 7 7 7 8 8 8 8 8 8 8 8 8 7 7 6 6 5 3 2 7 6 4 3 3 4 4 3 3 4 3 3 4 5 5 5 5 5 5 5 5 4 5 6 6 4
7 7 7 7 7 7 8 8 8 8 8 8 8 7 6 6 5 6 6 3 8 7 5 3 2 3 3 3 3 3 3 3 2 2 3 4 5 5 4 3 5 5 4 4 5 5 6
7 7 7 7 7 7 7 7 8 8 8 7 7 7 5 5 6 6 6 7 6 3 2 3 3 3 2 2 2 2 3 3 2 2 2 1 2 4 4 3 2 3 3 2 1 4 3
7 7 6 6 7 7 7 7 7 7 7 7 7 6 5 5 5 6 6 4 2 2 1 1 2 2 2 2 1 1 2 2 1 -0 -1 -0 1 4 4 3 3 3 3 3 1 3 4
6 6 6 7 6 6 7 7 7 6 6 7 6 5 4 4 5 5 5 1 1 1 1 1 1 1 0 1 1 1 1 2 1 1 1 1 -1 3 3 3 3 2 3 2 2 1 0
6 6 6 6 6 6 6 6 6 6 6 6 6 4 2 4 4 2 1 0 0 0 0 1 0 0 1 -0 0 0 0 1 0 0 -0 1 -1 2 2 2 1 2 0 -0 1 1 -0
5 6 6 6 6 6 5 5 5 5 6 6 5 3 2 2 1 -1 -0 -1 -1 1 0 1 0 0 0 0 -0 -0 0 0 -1 -2 -2 -0 -1 -1 1 -3 -3 -4 -6 -5 -1 0 -0
5 6 6 5 5 5 5 4 4 5 5 5 2 -0 0 1 0 0 -1 -0 -1 0 0 0 0 1 1 -1 -2 -0 -0 0 -2 -1 -2 -1 -1 -1 1 -1 -1 -6 -7 -8 -7 -6 -4
5 5 5 5 5 4 4 4 4 4 4 3 1 1 -1 -2 -3 -1 -2 -2 -1 -1 -0 -1 -0 -1 -1 -1 -2 -2 -1 -1 -3 -2 -2 -3 -2 -4 -3 -6 -6 -8 -9 -9 -7 -4 -7
5 5 5 5 4 4 4 4 3 3 3 2 -0 -3 -3 -2 -2 -2 -2 -2 -2 -2 -1 -1 -1 -3 -4 -4 -2 -2 -3 -4 -3 -4 -5 -4 -3 -8 -9 -10 -10 -11 -12 -11 -12 -11 -9
4 4 4 4 3 3 3 3 3 3 2 2 -3 -3 -4 -4 -4 -2 -4 -4 -3 -3 -3 -2 -5 -5 -3 -5 -6 -7 -6 -5 -7 -6 -6 -7 -4 -8 -10 -11 -11 -13 -12 -13 -14 -13 -13
4 4 3 3 3 2 2 2 2 2 2 -0 -3 -3 -3 -5 -3 -3 -5 -6 -5 -5 -4 -4 -6 -6 -6 -6 -8 -8 -8 -9 -10 -10 -11 -9 -7 -4 -8 -9 -8 -9 -15 -13 -15 -15 -15
4 3 3 3 2 2 2 1 1 1 1 0 -2 -3 -4 -5 -4 -5 -7 -6 -6 -6 -8 -7 -6 -8 -6 -9 -9 -9 -10 -11 -11 -12 -12 -12 -9 -6 -7 -9 -6 -15 -15 -15 -16 -16 -16
3 3 3 2 2 2 1 1 0 -0 -1 -1 -2 -3 -4 -8 -7 -7 -7 -8 -9 -10 -9 -8 -8 -9 -9 -9 -6 -6 -6 -7 -8 -10 -13 -14 -11 -8 -6 -10 -14 -14 -15 -16 -17 -16 -17
3 3 2 2 2 1 1 0 -0 -1 -2 -2 -3 -3 -4 -8 -10 -11 -10 -11 -11 -10 -8 -9 -8 -8 -9 -7 -6 -7 -8 -10 -9 -10 -8 -13 -13 -9 -9 -9 -9 -14 -15 -17 -17 -14 -17
2 2 2 2 1 1 0 -0 -1 -1 -2 -2 -3 -4 -4 -11 -12 -12 -11 -11 -13 -12 -12 -12 -12 -10 -9 -7 -8 -9 -8 -13 -11 -13 -14 -14 -15 -13 -12 -12 -14 -16 -17 -18 -15 -14 -18
2 2 2 1 1 1 -0 -1 -1 -1 -2 -2 -3 -4 -3 -10 -12 -11 -11 -12 -13 -14 -11 -11 -10 -10 -9 -9 -8 -10 -10 -13 -13 -17 -17 -16 -15 -13 -13 -12 -11 -17 -17 -15 -17 -19 -19
2 2 1 1 1 -0 -1 -1 -1 -1 -2 -3 -3 -4 -4 -6 -11 -11 -11 -11 -12 -12 -13 -13 -12 -13 -13 -10 -11 -12 -11 -12 -16 -11 -18 -13 -17 -15 -15 -12 -18 -18 -18 -18 -19 -20 -19
Height
1528 1525 1523 1520 1517 1514 1510 1507 1503 1499 1495 1492 1489 1485 1480 1477 1472 1468 1464 1460 1455 1451 1448 1445 1444 1445 1447 1450 1449 1447 1445 1443 1443 1442 1442 1445 1448 1449 1443 1440 1442 1432 1430 1428 1430 1430 1428
1528 1525 1522 1519 1517 1513 1509 1506 1502 1499 1496 1492 1488 1484 1479 1475 1471 1466 1462 1457 1451 1448 1444 1442 1441 1442 1445 1449 1447 1445 1443 1441 1440 1441 1441 1443 1443 1443 1440 1436 1436 1426 1427 1426 1427 1425 1424
1527 1524 1521 1518 1515 1512 1508 1505 1502 1499 1496 1493 1489 1484 1479 1474 1470 1465 1459 1453 1449 1446 1444 1441 1440 1442 1446 1450 1446 1444 1442 1440 1439 1438 1438 1439 1442 1442 1437 1434 1431 1428 1426 1421 1418 1422 1419
1527 1524 1521 1517 1514 1511 1508 1505 1502 1499 1496 1492 1488 1483 1478 1473 1467 1463 1457 1451 1447 1446 1444 1442 1441 1443 1447 1447 1446 1443 1440 1437 1435 1436 1437 1439 1440 1439 1436 1432 1427 1425 1418 1413 1398 1405 1410
1526 1523 1520 1516 1513 1511 1508 1506 1503 1500 1496 1492 1487 1483 1478 1473 1467 1463 1457 1451 1448 1447 1444 1443 1445 1445 1448 1447 1444 1443 1440 1437 1435 1434 1434 1435 1436 1435 1435 1431 1427 1415 1403 1398 1400 1404 1406
1525 1522 1519 1516 1513 1511 1509 1506 1503 1500 1496 1492 1488 1484 1479 1474 1468 1462 1457 1451 1448 1448 1447 1446 1447 1449 1451 1451 1447 1444 1441 1437 1435 1434 1433 1434 1433 1428 1428 1428 1407 1401 1398 1400 1402 1396 1400
1524 1521 1518 1515 1513 1511 1509 1507 1503 1500 1497 1493 1489 1484 1479 1474 1469 1463 1457 1451 1453 1452 1451 1457 1460 1458 1457 1452 1449 1445 1440 1437 1436 1433 1428 1427 1425 1419 1417 1418 1414 1411 1406 1398 1396 1400 1403
1523 1520 1517 1515 1513 1511 1509 1507 1504 1501 1497 1493 1488 1484 1480 1474 1470 1465 1460 1458 1464 1464 1461 1459 1459 1460 1458 1453 1451 1448 1445 1442 1438 1432 1429 1428 1420 1417 1416 1416 1420 1416 1409 1401 1399 1396 1398
1522 1519 1516 1515 1513 1511 1510 1507 1504 1501 1497 1492 1488 1484 1480 1474 1469 1465 1462 1462 1461 1462 1463 1462 1462 1462 1459 1457 1455 1453 1449 1444 1439 1434 1430 1426 1420 1424 1422 1424 1421 1416 1411 1406 1403 1397 1395
1520 1518 1516 1515 1513 1512 1510 1507 1503 1500 1496 1492 1488 1483 1479 1474 1471 1466 1462 1460 1459 1459 1454 1466 1464 1466 1462 1456 1456 1456 1453 1450 1443 1438 1435 1428 1429 1428 1425 1425 1431 1420 1409 1411 1410 1408 1386
1519 1518 1516 1515 1513 1512 1509 1507 1503 1500 1496 1492 1487 1483 1479 1473 1472 1467 1465 1460 1458 1459 1437 1470 1470 1471 1467 1466 1468 1460 1455 1449 1445 1442 1440 1432 1429 1427 1421 1423 1423 1417 1414 1412 1407 1402 1395
1519 1518 1517 1515 1513 1511 1509 1506 1504 1500 1496 1491 1487 1482 1478 1475 1470 1467 1462 1458 1459 1450 1456 1472 1473 1473 1468 1468 1466 1461 1457 1452 1448 1443 1438 1434 1432 1429 1425 1423 1419 1417 1413 1403 1393 1393 1394
1518 1517 1516 1514 1513 1510 1508 1506 1503 1499 1495 1491 1486 1481 1477 1474 1471 1466 1461 1459 1450 1447 1473 1480 1479 1475 1472 1470 1465 1464 1457 1453 1455 1449 1440 1435 1430 1427 1428 1425 1416 1414 1411 1395 1378 1377 1365
1517 1516 1515 1514 1512 1510 1508 1505 1502 1498 1495 1490 1484 1481 1478 1474 1470 1465 1460 1458 1460 1482 1486 1486 1482 1478 1474 1473 1469 1467 1460 1455 1457 1455 1446 1443 1435 1429 1429 1430 1428 1418 1415 1412 1405 1374 1384
1516 1515 1514 1513 1512 1509 1506 1504 1500 1497 1493 1488 1482 1479 1476 1474 1470 1465 1461 1468 1486 1491 1494 1489 1482 1478 1476 1476 1477 1471 1464 1461 1461 1465 1463 1451 1438 1431 1429 1428 1426 1417 1411 1412 1412 1391 1382
1515 1514 1514 1512 1511 1508 1505 1502 1499 1496 1491 1485 1480 1478 1478 1477 1472 1467 1467 1486 1492 1495 1495 1491 1487 1484 1481 1478 1476 1472 1465 1462 1463 1465 1464 1453 1447 1431 1429 1425 1422 1422 1419 1413 1409 1407 1403
1513 1513 1513 1511 1510 1507 1505 1501 1498 1493 1488 1482 1478 1479 1483 1479 1476 1474 1482 1493 1497 1496 1495 1493 1489 1486 1483 1483 1477 1473 1470 1466 1467 1464 1464 1456 1451 1432 1428 1423 1425 1420 1426 1427 1420 1414 1410
1511 1511 1512 1510 1508 1506 1504 1500 1495 1491 1486 1480 1479 1484 1486 1482 1482 1491 1494 1498 1500 1496 1495 1493 1490 1486 1483 1481 1477 1474 1470 1468 1470 1470 1461 1456 1450 1440 1430 1445 1439 1444 1456 1451 1429 1413 1416
1510 1510 1510 1509 1507 1505 1502 1499 1493 1489 1484 1480 1483 1490 1490 1482 1490 1493 1501 1498 1500 1498 1494 1493 1489 1486 1483 1482 1480 1473 1469 1470 1471 1468 1462 1457 1446 1436 1424 1437 1438 1457 1467 1466 1459 1452 1440
1509 1510 1509 1508 1506 1504 1501 1497 1492 1488 1484 1482 1485 1489 1495 1495 1499 1499 1501 1501 1500 1497 1495 1493 1491 1488 1486 1479 1480 1475 1471 1471 1472 1467 1461 1459 1451 1456 1448 1463 1465 1472 1477 1469 1457 1436 1456
1509 1508 1507 1507 1505 1502 1499 1495 1491 1487 1484 1483 1487 1497 1500 1502 1501 1503 1502 1504 1502 1500 1497 1495 1491 1496 1495 1490 1480 1476 1476 1475 1471 1468 1463 1459 1451 1476 1483 1484 1482 1486 1489 1485 1480 1480 1467
1507 1507 1506 1505 1503 1501 1498 1494 1491 1487 1484 1482 1488 1495 1501 1505 1506 1503 1506 1508 1505 1502 1502 1496 1499 1497 1493 1492 1496 1492 1488 1483 1487 1474 1469 1467 1458 1473 1485 1489 1488 1494 1494 1495 1498 1497 1496
1506 1506 1504 1504 1502 1499 1496 1494 1490 1487 1484 1484 1489 1493 1496 1508 1508 1506 1513 1512 1508 1507 1501 1501 1502 1498 1495 1495 1494 1489 1487 1491 1492 1486 1481 1475 1470 1456 1470 1481 1476 1475 1511 1504 1509 1511 1508
1504 1504 1503 1502 1500 1498 1495 1493 1490 1488 1486 1485 1488 1492 1496 1511 1508 1512 1514 1512 1509 1510 1509 1503 1501 1500 1496 1494 1493 1491 1491 1491 1490 1490 1487 1483 1473 1463 1469 1478 1460 1514 1516 1515 1515 1517 1515
1503 1502 1502 1500 1499 1497 1494 1492 1490 1489 1488 1489 1490 1492 1496 1510 1515 1516 1515 1511 1508 1508 1507 1505 1503 1500 1493 1491 1488 1487 1483 1485 1485 1490 1490 1490 1482 1473 1463 1487 1510 1511 1517 1519 1519 1514 1518
1501 1501 1500 1499 1497 1496 1494 1492 1491 1490 1490 1491 1492 1493 1496 1501 1519 1518 1516 1515 1515 1511 1506 1504 1499 1496 1492 1489 1486 1491 1496 1504 1494 1492 1489 1493 1489 1476 1480 1476 1482 1513 1519 1521 1521 1506 1516
1499 1499 1498 1497 1496 1495 1493 1492 1492 1492 1492 1493 1492 1495 1495 1503 1518 1517 1517 1516 1517 1516 1514 1509 1503 1497 1494 1493 1498 1504 1503 1521 1510 1516 1516 1504 1506 1503 1498 1502 1510 1518 1519 1519 1509 1511 1515
1497 1497 1496 1496 1495 1494 1494 1493 1493 1493 1493 1494 1494 1496 1496 1504 1517 1518 1516 1515 1515 1515 1513 1510 1508 1504 1503 1501 1503 1512 1512 1525 1523 1535 1533 1529 1520 1511 1510 1499 1500 1517 1519 1515 1514 1513 1513
1495 1495 1495 1494 1494 1494 1494 1494 1494 1494 1494 1495 1495 1497 1497 1499 1516 1518 1516 1515 1514 1514 1513 1513 1514 1514 1513 1512 1515 1518 1518 1524 1533 1513 1536 1517 1532 1524 1522 1507 1513 1513 1513 1512 1512 1512 1511
Wind_Speed
17 18 19 19 19 21 22 23 24 24 23 24 24 26 28 27 26 24 24 24 24 23 21 18 16 9 2 3 4 6 10 13 11 9 15 22 24 27 17 13 26 27 24 27 23 23 30
16 17 18 18 20 22 22 23 23 22 23 25 27 29 30 28 26 26 28 28 25 20 14 12 9 5 2 1 4 10 13 11 6 9 16 20 12 21 10 21 17 8 18 26 32 31 21
16 16 17 19 19 20 21 21 21 23 24 25 28 30 30 31 29 30 32 31 23 16 12 9 5 6 3 5 12 15 14 9 7 10 15 20 22 14 4 12 19 21 21 21 24 20 11
16 17 18 19 19 19 19 18 20 24 25 27 29 30 31 32 31 32 32 29 16 13 13 9 8 5 3 9 17 19 15 8 4 9 13 11 17 19 14 12 11 8 13 13 2 18 25
15 17 18 18 18 18 16 18 21 23 26 27 29 30 31 32 30 34 33 26 12 12 12 8 8 4 4 7 19 25 20 11 6 8 9 8 10 12 6 14 15 16 21 21 15 9 7
14 16 17 17 17 14 15 18 20 23 25 28 28 30 31 32 29 34 34 18 12 8 10 5 10 3 14 15 15 26 21 11 4 4 4 10 7 6 7 10 18 14 22 17 17 5 17
15 16 16 16 14 13 15 17 20 23 25 27 28 28 31 31 27 33 34 10 11 2 19 7 6 6 14 22 9 25 27 11 9 4 8 8 10 14 20 17 20 18 24 28 21 8 11
14 15 14 13 11 13 15 17 20 23 25 27 28 29 29 29 24 31 30 18 10 8 4 7 9 11 16 20 6 24 28 14 11 10 10 9 16 16 14 14 11 10 15 22 25 24 20
14 14 13 10 11 13 15 17 20 22 24 26 27 29 28 28 20 31 28 24 9 1 2 4 6 13 18 14 7 17 24 15 9 10 10 11 13 14 11 10 12 10 10 13 14 13 15
12 12 10 8 10 12 15 17 19 22 25 26 26 29 28 25 14 27 22 21 6 3 1 8 6 11 17 8 5 12 21 10 5 9 10 9 10 12 12 9 8 12 11 13 13 11 7
10 10 7 8 9 12 15 17 20 22 24 25 25 28 27 22 21 24 25 15 2 2 3 8 6 10 12 14 12 17 18 8 8 11 4 11 14 14 10 3 12 8 10 13 16 15 13
8 7 6 7 9 12 15 17 19 21 23 23 24 25 19 24 22 24 25 11 1 3 3 5 5 15 11 17 11 18 19 10 4 7 6 13 8 4 9 11 14 11 12 20 19 15 12
7 5 5 6 9 13 15 17 19 21 21 22 23 22 15 25 23 23 23 3 3 4 5 8 9 12 7 16 12 15 18 12 10 9 13 9 9 7 5 21 11 9 12 6 6 11 14
5 3 4 7 10 13 15 18 19 20 21 22 22 17 20 26 18 22 17 2 7 4 6 8 13 11 9 15 11 15 17 10 9 11 12 9 11 10 15 11 8 19 6 5 7 8 9
2 1 4 7 11 13 16 18 19 21 22 22 20 8 26 24 18 16 5 7 4 5 5 9 11 6 9 12 9 9 14 8 8 8 7 8 11 20 13 8 11 5 9 12 8 15 10
0 2 4 8 11 13 16 18 20 21 22 23 17 4 27 20 18 11 6 6 3 4 6 6 6 4 11 13 10 14 8 5 12 11 13 8 13 7 13 13 5 5 7 3 2 6 5
0 2 6 9 11 13 16 18 20 22 23 20 10 5 24 17 9 16 5 5 3 4 6 4 4 6 8 8 13 9 5 12 10 13 11 15 5 10 9 8 13 5 3 5 4 4 4
1 3 5 8 11 13 15 18 21 23 22 17 7 4 24 12 9 4 6 3 5 6 6 3 4 6 8 10 9 6 8 7 12 15 17 11 5 7 12 12 20 17 6 4 4 6 4
0 3 5 7 10 13 17 19 21 21 19 12 6 5 25 18 5 6 2 5 2 8 9 4 5 5 12 8 5 6 6 9 14 20 7 5 4 6 3 5 5 8 11 7 7 3 2
2 3 5 7 10 14 17 20 20 19 15 8 4 2 7 15 9 5 3 7 8 10 6 8 9 9 13 10 3 8 12 7 27 20 19 16 2 5 5 4 4 5 16 16 4 3 3
2 2 4 6 10 14 17 19 19 18 13 4 5 3 3 4 8 9 4 6 9 9 7 9 3 12 9 5 9 4 11 19 15 16 13 6 1 6 10 12 16 13 14 16 19 9 4
3 1 4 8 12 15 17 18 19 17 11 10 6 6 7 5 2 7 10 7 9 8 3 6 4 13 9 3 7 14 15 6 8 10 10 10 1 5 3 9 15 19 16 10 11 10 11
3 1 4 8 12 14 15 16 16 16 11 7 12 13 8 8 4 3 3 5 5 10 3 7 6 8 4 11 18 16 3 13 7 7 8 6 3 4 5 12 8 2 12 9 7 10 3
3 1 4 8 11 11 12 12 12 13 13 12 16 13 7 3 5 4 5 8 9 6 6 10 9 6 4 18 8 13 11 9 9 12 16 6 3 3 3 6 3 4 4 5 7 5 6
3 2 5 8 8 9 9 9 9 11 14 10 15 10 7 5 2 2 9 9 7 8 4 4 9 7 19 5 4 3 3 2 3 9 12 10 3 3 1 3 3 3 4 4 4 1 5
3 3 5 5 6 7 7 7 9 11 11 10 13 12 7 13 4 3 2 7 4 6 5 4 9 12 16 1 3 5 5 5 6 15 13 11 8 3 3 1 2 3 5 1 1 3 2
3 3 3 4 5 4 6 9 9 9 9 9 14 10 13 12 5 3 3 1 3 3 3 6 12 14 16 4 4 4 3 2 4 8 8 8 6 8 6 3 1 0 4 4 3 3 4
3 1 1 2 3 5 8 9 9 9 9 10 14 9 11 13 11 10 10 6 2 2 3 7 2 5 6 4 2 2 3 3 0 1 5 4 5 4 2 2 2 2 2 3 2 1 4
3 1 0 2 3 8 9 9 7 7 9 10 18 14 9 16 14 17 18 17 12 6 2 5 2 1 2 2 2 2 2 1 1 3 2 1 1 3 3 2 0 5 7 7 6 6 6
Wind_Direction
358 358 358 356 358 356 353 356 359 2 7 9 12 10 4 1 359 0 352 346 337 330 319 307 299 288 272 274 269 324 297 293 288 264 218 197 202 210 227 238 239 239 254 257 252 255 252
356 357 357 358 357 356 356 1 5 15 17 16 11 8 6 3 5 3 353 346 345 344 339 326 305 208 165 199 354 338 339 320 286 242 213 203 211 216 258 247 234 249 259 260 257 253 252
355 354 0 359 357 357 0 8 22 22 21 16 11 10 8 3 4 2 355 350 354 7 10 7 4 137 101 56 11 350 342 312 292 248 223 223 224 213 263 254 255 265 273 268 253 247 251
352 0 359 357 358 1 9 28 28 26 21 16 12 11 8 4 0 2 357 349 358 22 17 23 61 72 94 46 27 12 353 329 266 234 237 247 231 237 243 264 263 260 261 258 231 232 233
356 359 357 355 360 7 32 34 31 26 20 16 11 8 6 2 359 360 0 351 1 22 19 43 31 73 65 352 8 15 6 344 303 258 243 229 218 229 237 246 266 242 259 255 266 226 211
355 356 356 360 5 27 36 32 27 21 18 14 11 7 3 2 358 358 1 354 352 38 18 36 22 88 30 346 15 8 3 352 330 306 228 221 225 222 222 218 235 246 246 255 255 233 232
355 356 359 4 18 39 35 28 22 17 14 10 7 5 1 359 358 359 359 11 7 354 38 54 36 61 349 354 31 12 9 360 344 280 268 227 245 234 249 235 249 268 278 274 256 252 282
354 358 2 10 39 39 30 22 17 14 10 6 2 0 358 356 357 360 4 37 19 315 330 38 51 32 353 354 346 8 6 13 328 308 298 259 257 273 284 283 293 283 263 263 270 267 261
355 1 5 29 43 34 25 18 15 10 6 2 358 356 356 356 356 0 9 10 9 66 304 1 37 18 3 353 29 7 5 340 317 312 315 288 299 349 335 333 328 292 270 291 297 296 271
359 0 16 41 39 28 21 14 11 6 1 358 355 353 353 359 5 355 360 355 6 141 243 15 17 14 356 4 34 354 358 343 325 314 326 282 334 321 314 319 358 310 333 327 324 326 255
0 4 26 42 33 23 16 13 9 3 357 355 352 351 353 5 357 356 345 348 28 91 270 359 20 4 6 42 322 349 352 350 343 326 295 334 314 326 319 31 341 284 313 306 298 284 286
2 6 37 34 24 16 13 10 4 360 356 353 351 351 357 1 0 351 345 345 328 240 42 13 23 349 1 15 3 342 357 9 286 323 314 335 307 304 336 331 323 313 297 294 260 246 249
358 16 32 23 16 11 7 5 1 357 356 352 349 351 10 1 356 351 341 332 279 33 349 3 338 342 2 354 359 356 350 25 24 341 344 329 340 322 12 338 326 332 323 292 257 214 244
353 30 18 12 9 6 2 1 358 355 353 351 348 353 18 8 2 350 345 273 53 34 10 350 335 331 7 5 350 342 350 358 33 13 319 340 329 345 336 323 301 305 309 305 303 300 310
21 26 12 4 2 2 359 357 357 355 351 351 347 359 17 7 8 358 3 51 34 19 341 329 323 336 352 349 340 335 344 332 13 32 357 322 303 315 315 313 308 342 300 319 263 266 269
26 9 357 358 356 1 356 355 356 353 352 351 349 100 23 11 17 38 60 90 75 25 335 331 343 342 336 342 339 345 326 10 351 357 350 323 296 315 322 306 160 338 346 307 350 310 339
137 346 352 357 355 358 356 353 352 353 355 356 7 87 10 8 27 54 62 62 8 3 348 315 312 299 313 323 327 327 314 324 10 347 336 316 262 290 305 347 314 317 31 347 290 283 322
110 337 349 357 356 354 357 353 353 357 2 7 47 61 12 12 53 46 59 9 334 340 335 294 274 280 290 314 309 310 306 312 357 335 323 300 291 291 317 79 78 65 23 349 305 305 340
220 309 349 356 357 355 353 359 359 3 6 17 77 99 33 58 65 64 51 47 345 343 342 334 302 310 311 296 289 272 319 322 356 341 315 315 245 285 184 199 99 47 14 334 273 268 34
230 310 348 356 357 354 353 1 7 8 13 44 100 102 50 54 64 61 47 38 3 338 325 330 304 347 342 323 265 285 312 332 337 319 331 336 326 21 335 350 319 28 19 9 330 307 83
209 325 350 354 358 355 357 2 10 13 25 92 72 75 55 37 46 60 54 13 0 0 339 17 328 10 341 295 331 357 323 329 331 355 343 352 345 84 76 77 79 66 47 37 50 15 357
190 292 350 355 355 355 360 2 5 18 37 80 106 132 87 74 33 55 20 15 2 348 308 346 5 336 345 38 345 308 313 341 25 316 349 347 46 123 84 125 99 68 42 48 43 38 83
203 285 356 354 349 352 359 2 1 18 37 92 110 122 115 20 46 74 34 332 349 353 281 40 8 349 360 358 326 295 123 93 78 18 338 347 299 222 168 190 299 45 16 41 70 36 6
213 318 347 346 346 350 359 7 8 31 53 108 129 131 99 83 78 50 351 341 336 328 282 310 349 356 322 333 113 95 100 114 77 52 35 339 321 357 90 187 246 89 42 60 87 49 28
212 305 335 343 346 355 7 16 32 52 66 105 128 121 117 107 71 57 350 351 340 343 341 284 341 317 326 304 203 206 201 240 70 38 27 30 304 69 190 57 106 168 15 336 348 157 14
219 303 332 346 353 6 22 51 64 66 77 111 121 124 126 124 39 299 325 9 344 343 335 298 349 355 1 334 41 26 26 327 334 340 10 14 20 47 36 64 51 2 357 270 300 242 11
236 300 337 352 5 25 62 79 78 77 97 122 126 127 118 100 53 72 62 32 337 314 271 310 335 350 11 29 56 34 43 304 0 350 335 344 2 34 30 70 156 292 332 123 272 59 318
245 269 344 5 39 70 95 93 92 96 110 128 122 136 124 107 95 81 72 67 26 19 343 332 299 22 6 58 46 48 40 50 355 318 336 335 343 8 302 4 353 150 197 233 60 281 278
205 197 108 99 91 109 109 107 99 107 116 147 122 123 146 99 117 86 66 53 41 26 5 12 80 28 32 100 74 118 89 100 337 20 165 13 322 305 262 329 196 236 251 258 254 260 281